COSMOS 1275 DEB, 42203

Orbit data source: Space-Track

COSMOS 1275 DEB, 42203 is space debris in LEO originally from a launch on Thu, 04 Jun 1981 UTC launched from the Plesetsk Missile And Space Complex (PKMTR). Debris objects in space refer to the collection of defunct objects orbiting the Earth. Examples of debris include non-operational satellites, rocket bodies, and fragments generated from explosions, collisions, or faulty payload assembly.

Loading next visibility...
Identifier
42203, 1981-053TT
Orbit
LEO
Country
Flag of CISCIS
Related business
Manufacturer
Unknown
Mission
Spacecraft
Bus & Motor
Unknown
Mass
Unknown
Launch date (UTC)
1981-06-04 (45 years ago)
Launch vehicle
Unknown
Launch site
Plesetsk Missile And Space Complex (PKMTR)
Object type
Payload
Rocket body
Debris
Shape & HBR
Unknown shape, 0.1 m
Radar Cross Section
Small (<0.1 m²)

Expand to show TLE details & history
Last TLE update: 3 days ago

TLE from 3 days ago
0 COSMOS 1275 DEB
1 42203U 81053TT  26069.47671504  .00001693  00000-0  16555-2 0  9998
2 42203  82.9971 337.6285 0119156 347.7190 137.3323 13.75537863614884
Epoch: 2026-03-10T11:26Z
TLE epoch observation values (Epoch: 2026-03-10T11:26:28.179Z)
Latitude
53.54474°
Longitude
168.3347°
Altitude
1,053.478 km
Speed
7.298 km/s
True Right ascension
09h 52m 25s
True Declination
53° 23' 12"
Sunlit
Object was in full shadow at epoch
Visualization orbit readout
Latitude
Unknown
Longitude
Unknown
Altitude
Unknown
Speed
Unknown
Apparent Right ascension
Unknown
Apparent Declination
Unknown
Sunlit
N/A
Visualization observer readout
Local Sidereal Time
14:52:11
Azimuth
Unknown
Elevation
Unknown
Doppler factor
Unknown
Orbital elements
Apogee altitude
1,064.541 km
Perigee altitude
889.262 km
Semi-major axis
7,355.039 km
Eccentricity
0.01192
Inclination
82.9971°
RAAN
337.6285°
Arg. of periapsis
347.719°
True anomaly
138.24764°
Mean anomaly
137.3323°
Eccentric anomaly
137.79097°
Mean motion
3.44085 °/min
Orbital period
104.63 mins
BSTAR
0.0016555
Loading maneuver chart data...
Computing Atmospheric mass density...
Loading historical data...
Loading historical data...
Loading historical data...
Loading historical data...
Loading historical data...
Loading historical data...
Loading historical data...

Documentation

Showing up to 5 results
|